DW7473 Weather Reports


Display with metric or nautical units.
time (UTC)temp
F
wind
direction
speed
MPH
gust
MPH
rain 1hr
in
rain 24hr
in
rain mn
in
humidity
%
barometer
mb
20180124073601 40 284 3.0 8.0 0.00 0.00 0.00 74 1010.3
20180124072104 40 242 2.0 9.0 0.00 0.00 0.00 75 1010.3
20180124070556 39 265 0.0 4.0 0.00 0.00 0.00 74 1010.2
20180124065049 41 281 0.0 8.0 0.00 0.00 0.00 72 1009.9
20180124063550 41 276 3.0 9.0 0.00 0.00 0.00 72 1009.8
20180124062046 41 304 5.0 11.0 0.00 0.00 0.00 72 1009.6
20180124060547 40 263 1.0 6.0 0.00 0.00 0.00 73 1009.4
20180124055040 41 249 0.0 3.0 0.00 0.00 0.00 71 1009.4
20180124053537 41 238 1.0 7.0 0.00 0.00 0.00 69 1009.4
20180124052039 42 229 1.0 7.0 0.00 0.00 0.00 68 1009.4
20180124050531 43 263 2.0 10.0 0.00 0.00 0.00 65 1009.3
20180124045033 44 300 4.0 13.0 0.00 0.00 0.00 64 1009.2
20180124043529 44 253 6.0 15.0 0.00 0.00 0.00 63 1009.1
20180124042030 44 290 8.0 16.0 0.00 0.00 0.00 63 1009.1
20180124040528 44 288 6.0 11.0 0.00 0.00 0.00 63 1009.3
20180124035029 44 300 5.0 10.0 0.00 0.00 0.00 64 1009.2
20180124033532 44 317 4.0 9.0 0.00 0.00 0.00 64 1009.1
20180124032030 44 308 6.0 12.0 0.00 0.00 0.00 64 1009.2
20180124030529 44 273 10.0 17.0 0.00 0.00 0.00 66 1009.1
20180124025025 43 289 2.0 7.0 0.00 0.00 0.00 68 1008.8
20180124022024 45 346 4.0 11.0 0.00 0.00 0.00 65 1008.4
20180124020525 45 280 5.0 13.0 0.00 0.00 0.00 64 1008.2
20180124015025 45 311 5.0 9.0 0.00 0.00 0.00 64 1008.1
20180124013526 45 277 3.0 14.0 0.00 0.00 0.00 63 1008.0
20180124012027 46 295 6.0 13.0 0.00 0.00 0.00 63 1007.8
20180124010522 46 287 5.0 15.0 0.00 0.00 0.00 62 1007.6
20180124005025 47 313 6.0 16.0 0.00 0.00 0.00 61 1007.4
20180124003522 47 312 10.0 18.0 0.00 0.00 0.00 60 1007.3
20180124002022 48 306 8.0 14.0 0.00 0.00 0.00 63 1007.1
20180124000521 49 297 5.0 17.0 0.00 0.00 0.00 62 1006.9
20180123235019 50 315 6.0 13.0 0.00 0.00 0.00 63 1006.6
20180123233519 50 293 6.0 14.0 0.00 0.00 0.00 66 1006.1
20180123232017 51 288 8.0 16.0 0.00 0.00 0.00 68 1005.9
20180123230522 50 322 6.0 11.0 0.00 0.00 0.00 72 1005.7
20180123225019 51 292 3.0 7.0 0.00 0.00 0.00 73 1005.6
20180123223517 51 292 1.0 9.0 0.00 0.00 0.00 72 1005.3
20180123222016 52 271 4.0 14.0 0.00 0.00 0.00 71 1005.0
20180123220515 52 327 3.0 15.0 0.00 0.00 0.00 71 1004.7
20180123215015 53 304 6.0 17.0 0.00 0.00 0.00 71 1004.6
20180123213516 53 340 6.0 17.0 0.00 0.00 0.00 74 1004.5
20180123212014 54 319 9.0 19.0 0.00 0.00 0.00 73 1004.2
20180123210513 56 327 15.0 27.0 0.00 0.00 0.00 69 1003.4
20180123205013 58 318 4.0 9.0 0.00 0.00 0.00 68 1002.6
20180123203512 59 285 5.0 11.0 0.00 0.00 0.00 67 1002.3
20180123202015 60 271 5.0 12.0 0.00 0.00 0.00 67 1001.8
20180123200517 60 313 3.0 10.0 0.00 0.00 0.00 68 1001.6
20180123195018 60 286 6.0 12.0 0.00 0.00 0.00 67 1001.5
20180123193515 60 333 3.0 12.0 0.00 0.00 0.00 70 1001.3
20180123192017 60 323 4.0 13.0 0.00 0.00 0.00 70 1001.2
20180123190512 60 300 5.0 11.0 0.00 0.00 0.00 72 1001.2
20180123185011 60 296 5.0 11.0 0.00 0.00 0.00 73 1001.5
20180123183510 59 319 4.0 10.0 0.00 0.00 0.00 77 1001.5
20180123182007 59 298 3.0 8.0 0.00 0.00 0.00 80 1001.8
20180123180504 58 312 4.0 8.0 0.00 0.00 0.00 84 1002.0
20180123175004 57 275 2.0 8.0 0.00 0.00 0.00 88 1002.1
20180123173459 55 316 2.0 6.0 0.00 0.00 0.00 91 1002.3
20180123172000 55 340 1.0 7.0 0.00 0.00 0.00 92 1002.5
20180123170456 54 306 3.0 13.0 0.00 0.00 0.00 92 1002.7
20180123164957 55 350 7.0 18.0 0.00 0.00 0.00 93 1003.1
20180123163454 59 176 1.0 9.0 0.00 0.00 0.00 96 1002.6
20180123161956 58 211 2.0 10.0 0.00 0.00 0.00 96 1003.1
20180123160451 58 165 2.0 13.0 0.00 0.00 0.00 96 1003.3
20180123154949 58 163 3.0 10.0 0.00 0.00 0.00 96 1003.7
20180123153447 58 207 3.0 8.0 0.00 0.00 0.00 95 1004.3
20180123151944 58 160 4.0 12.0 0.00 0.00 0.00 96 1004.9
20180123150444 58 167 3.0 11.0 0.00 0.00 0.00 96 1005.2
20180123144944 58 234 2.0 14.0 0.00 0.00 0.00 96 1005.6
20180123143440 57 173 6.0 15.0 0.00 0.00 0.00 97 1005.7
20180123141937 57 179 5.0 19.0 0.00 0.00 0.00 97 1006.0
20180123140434 57 205 7.0 23.0 0.00 0.00 0.00 98 1006.5
20180123134931 56 165 6.0 27.0 0.00 0.00 0.00 98 1006.7
20180123133429 55 167 4.0 14.0 0.00 0.00 0.00 98 1007.3
20180123131928 55 192 5.0 15.0 0.00 0.00 0.00 98 1006.7
20180123130424 54 147 5.0 9.0 0.00 0.00 0.00 99 1006.9
20180123124920 53 201 5.0 11.0 0.00 0.00 0.00 99 1007.2
20180123123416 50 171 2.0 7.0 0.00 0.00 0.00 98 1007.4
20180123121913 45 122 0.0 1.0 0.00 0.00 0.00 98 1008.0
20180123120408 44 123 0.0 1.0 0.00 0.00 0.00 98 1008.4
20180123114906 42 12 0.0 1.0 0.00 0.00 0.00 97 1008.7
20180123113404 42 12 0.0 2.0 0.00 0.00 0.00 97 1009.1
20180123111901 42 15 0.0 2.0 0.00 0.00 0.00 97 1009.4
20180123110356 42 17 0.0 1.0 0.00 0.00 0.00 97 1009.7
20180123104857 42 17 0.0 0.0 0.00 0.00 0.00 97 1009.9
20180123103353 42 17 0.0 1.0 0.00 0.00 0.00 97 1010.4
20180123101851 41 16 0.0 1.0 0.00 0.00 0.00 97 1010.7
20180123100349 41 15 0.0 3.0 0.00 0.00 0.00 97 1011.0
20180123094852 41 74 0.0 2.0 0.00 0.00 0.00 97 1011.0
20180123093344 40 58 0.0 1.0 0.00 0.00 0.00 97 1011.7
20180123091845 40 58 0.0 0.0 0.00 0.00 0.00 96 1012.1
20180123090341 40 58 0.0 1.0 0.00 0.00 0.00 96 1012.0
20180123084841 39 58 0.0 1.0 0.00 0.00 0.00 96 1012.5
20180123083336 39 57 0.0 0.0 0.00 0.00 0.00 96 1013.1
20180123081833 39 57 0.0 1.0 0.00 0.00 0.00 95 1013.6
20180123080335 39 57 0.0 1.0 0.00 0.00 0.00 96 1013.5
20180123074832 39 57 0.0 0.0 0.00 0.00 0.00 96 1014.1